{"data":{"norad_id":59660,"intl_designator":"2024-084G","name":"STARLINK-31885","alt_names":[],"object_type":"PAYLOAD","status":"ACTIVE","operator":null,"country":"US","launch_date":"2024-05-06","launch_site_code":"AFETR","launch_vehicle":null,"mission":null,"orbit_class":"UNKNOWN","rcs_meters":null,"size_class":null,"mass_kg":null,"dimensions":null,"purposes":["comms"],"wikipedia_slug":null,"has_3d_model":false,"image_url":null,"decayed_at":null,"tle_current":{"epoch":"2026-09-21T14:14:57.614496Z","epoch_age_seconds":76749,"freshness":"FRESH","line1":"1 59660U 24084G   26264.59372239  .00000015  00000+0  10074-4 0  9995","line2":"2 59660  43.0021  12.0195 0001297 276.4446  83.6258 15.27583630134378","mean_motion":15.2758363,"eccentricity":0.0001297,"inclination_deg":43.0021,"raan_deg":12.0195,"arg_perigee_deg":276.4446,"mean_anomaly_deg":83.6258,"bstar":1.0074e-5,"rev_number":13437,"period_min":94.26652470739,"perigee_km":482.14833210841,"apogee_km":483.92812096217,"semimajor_km":6861.1752265353,"source":"CELESTRAK","updated_at":"2026-09-22T09:00:49.025841Z"}}}